Regional Weather Roundup
Issued by NWS

Home | Current Version | Previous Version | Graphics & Text | Print | Product List | Glossary On
Versions: 1 2 3 4 5 6 7 8 9 10 11 12 13 14 15 16 17 18 19 20 21 22 23 24 25 26 27 28 29 30 31 32 33 34 35 36 37 38 39 40 41 42 43 44 45 46 47 48 49 50
000
ASUS43 KOAX 020702
RWRNE

WEATHER ROUNDUP FOR NEBRASKA
NATIONAL WEATHER SERVICE OMAHA NE
200 AM CDT THU OCT 02 2014

NOTES: SATELLITE DATA IS BEING USED TO AUGMENT CLOUD COVER ABOVE
       12000 FEET.
       "FAIR" INDICATES FEW OR NO CLOUDS BELOW 12,000 FEET WITH NO
       SIGNIFICANT WEATHER AND/OR OBSTRUCTIONS TO VISIBILITY.

  * THESE STATIONS DO NOT REPORT WEATHER SUCH AS RAIN...SNOW OR FOG.

NEZ001>004-019>022-054>056-020800-
NEBRASKA PANHANDLE

CITY           SKY/WX    TMP DP  RH WIND       PRES   REMARKS
SCOTTSBLUFF    CLOUDY    42  41  96 W5        30.06R
ALLIANCE       CLOUDY    47  45  93 NW7       30.01R
CHADRON        CLEAR     44  43  96 W8        30.02S
KIMBALL        PTCLDY    40  39  97 NW6       30.04S
SIDNEY         MOCLDY    44  42  93 NW9       30.03S
$$

NEZ057>060-069>072-079>082-020800-
SOUTHWEST NEBRASKA

CITY           SKY/WX    TMP DP  RH WIND       PRES   REMARKS
NORTH PLATTE   LGT RAIN  51  48  89 N15       29.93F
IMPERIAL       LGT RAIN  51  47  86 N12       29.97S
LEXINGTON      LGT RAIN  53  51  90 N22G31    29.87F
MCCOOK         CLOUDY    54  50  86 N16G24    29.91R
OGALLALA       CLOUDY    51  48  90 N9        29.98S
$$

NEZ005>010-023>029-035>040-094-020800-
NORTH CENTRAL NEBRASKA

CITY           SKY/WX    TMP DP  RH WIND       PRES   REMARKS
VALENTINE      LGT RAIN  50  47  89 NW8       29.96F
AINSWORTH      RAIN      50  49  97 NW8       29.97S
BROKEN BOW     RAIN      52  50  93 N22G30    29.91F FOG
O`NEILL        LGT RAIN  56  50  82 N10       29.91R
ORD            RAIN      54  51  90 NW24G35   29.90R FOG
THEDFORD       RAIN      51  49  94 N8G16     29.97S
$$

NEZ041-046>049-061>064-073>077-083>087-020800-
SOUTH CENTRAL NEBRASKA

CITY           SKY/WX    TMP DP  RH WIND       PRES   REMARKS
GRAND ISLAND   LGT RAIN  60  55  83 NW9       29.82R
AURORA         MOCLDY    59  58  96 N5        29.79R
HASTINGS       CLOUDY    59  55  87 W21G26    29.86R
HEBRON         CLOUDY    65  60  85 NE3       29.77R
HOLDREGE       CLOUDY    53  50  90 N10G23    29.88R
KEARNEY *      CLOUDY    54  52  94 NW22G28   29.89R
YORK           PTCLDY    63  59  88 E7        29.78R FOG
$$

NEZ011>018-030>034-042>045-020800-
NORTHEAST NEBRASKA

CITY           SKY/WX    TMP DP  RH WIND       PRES   REMARKS
NORFOLK        CLOUDY    60  53  77 N12       29.81R
ALBION         CLOUDY    58  51  76 N12       29.82R
BLAIR          CLEAR     63  61  93 NE6       29.76F FOG
COLUMBUS *     PTCLDY    57  55  94 N5        29.79R
FREMONT        CLEAR     65  62  92 CALM      29.77R FOG
TEKAMAH        PTCLDY    64  62  93 NE6       29.77R
WAYNE          CLOUDY    58  55  88 N3        29.81S
$$

NEZ050>053-065>068-078-088>093-020800-
SOUTHEAST NEBRASKA

CITY           SKY/WX    TMP DP  RH WIND       PRES   REMARKS
LINCOLN        CLEAR     63  60  90 N6        29.77S
OMAHA EPPLEY   PTCLDY    63  60  90 CALM      29.77F FOG
BEATRICE       MOCLDY    65  63  93 E5        29.75F FOG
FALLS CITY     FOG       64  64 100 SE5       29.74F VSB 1
NEBRASKA CITY  CLOUDY    65  65 100 E3        29.77R FOG
PLATTSMOUTH      N/A     64  62  94 CALM      29.75F FOG
$$

NEZ044-045-051>053-067-020800-
OMAHA AREA

CITY           SKY/WX    TMP DP  RH WIND       PRES   REMARKS
OMAHA EPPLEY   PTCLDY    63  60  90 CALM      29.77F FOG
BLAIR          CLEAR     63  61  93 NE6       29.76F FOG
FREMONT        CLEAR     65  62  92 CALM      29.77R FOG
MILLARD          N/A     61  60  96 SE6       29.76S FOG
OFFUTT AFB     MOCLDY    63  63 100 NE5       29.75F
PLATTSMOUTH      N/A     64  62  94 CALM      29.75F FOG
WAHOO          FAIR      61  58  90 NE3       29.76R FOG
$$



USA.gov is the U.S. government's official web portal to all federal, state and local government web resources and services.